White Plains, CT

5:53 PM EDT on March 25, 2017 (GMT -0400)
Westchester County

Weather History for KHPN - January, 2013

Change the Weather History Date:

Tuesday, January 8, 2013

  Actual Average Record
Temperature  
Mean Temperature 37 °F -  
Max Temperature 46 °F 35 °F 61 °F (2008)
Min Temperature 28 °F 22 °F 5 °F (2015)
Degree Days  
Heating Degree Days 28    
Moisture  
Dew Point 25 °F    
Average Humidity 61    
Maximum Humidity 76    
Minimum Humidity 47    
Precipitation  
Precipitation 0.00 in - - ()
Sea Level Pressure  
Sea Level Pressure 30.37 in    
Wind  
Wind Speed 2 mph (WSW)    
Max Wind Speed 8 mph    
Max Gust Speed -    
Visibility 9 miles    
Events      
Averages and records for this station are not official NWS values.
T = Trace of Precipitation, MM = Missing Value Source: NWS Daily Summary

Daily Weather History Graph

Daily Weather History Graph

Search for Another Location

Airport or City:

Trip Planner

Search our weather history database for the weather conditions in past years. The results will help you decide how hot, cold, wet, or windy it might be!

Date:

Astronomy

Jan. 08, 2013 Rise Set
Actual Time 7:19 AM EST 4:43 PM EST
Civil Twilight 6:49 AM EST 5:14 PM EST
Nautical Twilight 6:14 AM EST 5:48 PM EST
Astronomical Twilight 5:41 AM EST 6:22 PM EST
Moon 3:49 AM EST (1/8) 1:43 PM EST (1/8)
Length of Visible Light 10h 25m
Length of Day
9h 24m
Waning Crescent, 14% of the Moon is Illuminated
Jan 8
Waning Crescent
Jan 11
New
Jan 18
First Quarter
Jan 26
Full
Feb 3
Last Quarter

Hourly Weather History & Observations

Time (EST) Temp. Windchill Dew Point Humidity Pressure Visibility Wind Dir Wind Speed Gust Speed Precip Events Conditions
12:56 AM 28.0 °F - 21.0 °F 75% 30.38 in 10.0 mi Calm Calm - N/A   Clear
1:56 AM 33.1 °F - 21.9 °F 64% 30.37 in 10.0 mi Calm Calm - N/A   Clear
2:56 AM 30.9 °F - 21.9 °F 69% 30.36 in 10.0 mi Calm Calm - N/A   Clear
3:56 AM 33.1 °F 30.0 °F 23.0 °F 66% 30.36 in 9.0 mi West 3.5 mph - N/A   Clear
4:56 AM 32.0 °F 27.5 °F 23.0 °F 69% 30.37 in 8.0 mi West 4.6 mph - N/A   Clear
5:56 AM 32.0 °F - 23.0 °F 69% 30.38 in 8.0 mi Calm Calm - N/A   Clear
6:56 AM 32.0 °F 28.7 °F 24.1 °F 73% 30.40 in 7.0 mi West 3.5 mph - N/A   Clear
7:56 AM 32.0 °F 28.7 °F 24.1 °F 73% 30.42 in 5.0 mi Variable 3.5 mph - N/A   Haze
8:56 AM 35.1 °F 32.2 °F 25.0 °F 67% 30.43 in 6.0 mi Variable 3.5 mph - N/A   Haze
9:56 AM 39.0 °F 34.8 °F 26.1 °F 60% 30.42 in 8.0 mi Variable 5.8 mph - N/A   Clear
10:56 AM 42.1 °F 38.4 °F 26.1 °F 53% 30.40 in 10.0 mi Variable 5.8 mph - N/A   Clear
11:56 AM 43.0 °F 38.2 °F 27.0 °F 53% 30.36 in 9.0 mi SW 8.1 mph - N/A   Clear
12:56 PM 45.0 °F 41.2 °F 28.0 °F 52% 30.35 in 9.0 mi WSW 6.9 mph - N/A   Clear
1:56 PM 46.0 °F 42.5 °F 28.0 °F 50% 30.34 in 9.0 mi SW 6.9 mph - N/A   Clear
2:56 PM 46.0 °F 41.9 °F 27.0 °F 47% 30.34 in 10.0 mi SSW 8.1 mph - N/A   Clear
3:56 PM 46.0 °F 43.9 °F 27.0 °F 47% 30.34 in 10.0 mi SW 4.6 mph - N/A   Clear
4:56 PM 44.1 °F - 27.0 °F 51% 30.35 in 10.0 mi Calm Calm - N/A   Clear
5:56 PM 43.0 °F - 27.0 °F 53% 30.35 in 10.0 mi Calm Calm - N/A   Clear
6:56 PM 42.1 °F 39.2 °F 28.0 °F 58% 30.38 in 10.0 mi WSW 4.6 mph - N/A   Clear
7:56 PM 41.0 °F 38.0 °F 27.0 °F 57% 30.38 in 10.0 mi West 4.6 mph - N/A   Clear
8:56 PM 41.0 °F 39.0 °F 27.0 °F 57% 30.37 in 10.0 mi WSW 3.5 mph - N/A   Clear
9:56 PM 37.9 °F - 26.1 °F 62% 30.37 in 9.0 mi Calm Calm - N/A   Clear
10:56 PM 32.0 °F - 25.0 °F 75% 30.39 in 8.0 mi Calm Calm - N/A   Clear
11:56 PM 30.9 °F - 24.1 °F 76% 30.38 in 8.0 mi Calm Calm - N/A   Clear